Location: North Evanston
(42.0634°N, 87.6976°W)
Time: 10:53:31
(UTC+00:00)

Tiros 1 - Visible Passes

Search period start: 15 May 2026 00:00
Search period end: 25 May 2026 00:00
Orbit: 618 x 648 km, 48.4° (Epoch: 14 May)

Date Brightness Start Highest point End Pass type
(mag) Time Alt. Az. Time Alt. Az. Time Alt. Az.
15 May 9.1 05:45:56 20° ENE 05:45:56 20° ENE 05:47:24 10° ENE visible
15 May 8.2 07:23:16 29° WNW 07:24:58 42° NNW 07:29:19 10° ENE visible
15 May 8.4 09:03:11 10° WNW 09:07:31 40° N 09:11:49 10° E visible
16 May 8.2 06:05:48 41° NE 06:05:48 41° NE 06:08:55 10° ENE visible
16 May 8.5 07:43:08 13° WNW 07:46:46 37° N 07:51:01 10° ENE visible
16 May 7.9 09:24:47 10° WNW 09:29:15 52° NNE 09:33:42 10° E visible
17 May 9.6 04:48:14 12° ENE 04:48:14 12° ENE 04:48:32 10° ENE visible
17 May 8.0 06:25:32 43° NNW 06:26:02 45° NNW 06:30:27 10° ENE visible
17 May 8.4 08:04:17 10° WNW 08:08:35 38° N 08:12:51 10° ENE visible
17 May 7.2 09:46:17 10° WNW 09:50:53 80° NNE 09:55:26 10° ESE visible
18 May 8.5 05:07:44 30° NE 05:07:44 30° NE 05:10:05 10° ENE visible
18 May 8.4 06:45:01 19° WNW 06:47:48 38° N 06:52:05 10° ENE visible
18 May 8.1 08:25:54 10° WNW 08:30:21 47° NNE 08:34:45 10° E visible
19 May 9.4 03:49:17 12° ENE 03:49:17 12° ENE 03:49:39 10° ENE visible
19 May 7.9 05:26:28 46° NW 05:27:07 50° NNW 05:31:35 10° ENE visible
19 May 8.5 07:05:20 10° WNW 07:09:38 37° N 07:13:54 10° ENE visible
19 May 7.4 08:47:25 10° WNW 08:52:00 69° NNE 08:56:33 10° ESE visible
20 May 8.2 02:21:30 10° S 02:25:06 22° SE 02:28:42 10° E visible
20 May 7.0 04:01:57 10° WSW 04:06:36 86° NNW 04:11:14 10° ENE visible
20 May 8.4 05:44:30 10° WNW 05:48:52 39° N 05:53:11 10° ENE visible
20 May 8.2 07:27:00 10° WNW 07:31:25 43° NNE 07:35:47 10° E visible
20 May 7.0 09:08:57 10° WNW 09:13:31 71° SSW 09:18:03 10° SE visible
21 May 7.4 02:41:55 10° SW 02:46:20 44° SE 02:50:44 10° ENE visible
21 May 7.7 04:23:38 10° W 04:28:12 55° NNW 04:32:44 10° ENE visible
21 May 8.5 06:06:23 10° WNW 06:10:41 37° N 06:14:56 10° ENE visible
21 May 7.6 07:48:34 10° WNW 07:53:07 60° NNE 07:57:37 10° ESE visible
21 May 7.6 09:30:39 10° WNW 09:34:52 37° SW 09:39:03 10° SSE visible
22 May 7.0 03:03:04 10° WSW 03:07:44 81° SSE 03:12:22 10° ENE visible
22 May 8.3 04:45:30 10° W 04:49:55 41° N 04:54:18 10° ENE visible
22 May 8.3 06:28:06 10° WNW 06:32:28 41° N 06:36:49 10° E visible
22 May 6.9 08:10:04 10° WNW 08:14:41 85° SSW 08:19:14 10° ESE visible
23 May 7.7 01:43:16 10° SSW 01:47:32 36° SE 01:51:46 10° ENE visible
23 May 7.5 03:24:39 10° WSW 03:29:17 63° NNW 03:33:53 10° ENE visible
23 May 8.5 05:07:24 10° WNW 05:11:43 37° N 05:16:00 10° ENE visible
23 May 7.8 06:49:41 10° WNW 06:54:12 53° NNE 06:58:41 10° E visible
23 May 7.3 08:31:42 10° WNW 08:36:05 46° SW 08:40:26 10° SE visible
24 May 7.1 02:04:14 10° SW 02:08:53 68° SSE 02:13:30 10° ENE visible
24 May 8.2 03:46:30 10° W 03:50:58 45° NNW 03:55:25 10° ENE visible
24 May 8.4 05:29:10 10° WNW 05:33:31 39° N 05:37:50 10° ENE visible
24 May 7.0 07:11:11 10° WNW 07:15:49 82° NNE 07:20:23 10° ESE visible
24 May 8.1 08:53:41 10° W 08:57:18 23° SW 09:00:54 10° S visible
